National Weather Service Raw Text Product

Displaying AFOS PIL: RWRIA Received: 2017-09-14 10:00 UTC


708 
ASUS43 KDMX 141006
RWRIA 

WEATHER ROUNDUP FOR IOWA
NATIONAL WEATHER SERVICE DES MOINES IA
500 AM CDT THU SEP 14 2017

NOTE: "FAIR" INDICATES FEW OR NO CLOUDS BELOW 12,000 FEET WITH NO
SIGNIFICANT WEATHER AND/OR OBSTRUCTIONS TO VISIBILITY.

* - THESE STATIONS ARE NOT NWS STATIONS...THUS NOT UNDER NWS
QUALITY CONTROL.  THEY ALSO DO NOT REPORT WEATHER SUCH 
AS PRECIPITATION OR FOG.  

IAZ001>003-012>014-020>022-031>034-043>046-141100-
   NORTHWEST IOWA
  
CITY           SKY/WX    TMP DP  RH WIND       PRES   REMARKS
CARROLL *      CLOUDY    70  61  73 SW13      29.75R                  
CHEROKEE *     CLOUDY    60  60  99 SE3       29.73R                  
DENISON *      CLEAR     68  61  77 S10G18    29.76S                  
LE MARS *      CLEAR     63  59  88 S6        29.70S                  
ORANGE CITY *  PTCLDY    66  63  88 S5        29.72R                  
SHELDON *      CLOUDY    61  59  94 VRB5      29.70F                  
SIOUX CITY     PTCLDY    61  60  97 SE9       29.70R                  
SPENCER        CLOUDY    59  57  93 CALM      29.73S                  
STORM LAKE *   CLOUDY    63  59  88 S8        29.75R                  
$$
 
IAZ055>058-069>071-079>083-090>094-141100-
   SOUTHWEST IOWA
  
CITY           SKY/WX    TMP DP  RH WIND       PRES   REMARKS
ATLANTIC *     PTCLDY    64  61  88 S5        29.78R                  
AUDUBON *      PTCLDY    68  61  77 S7        29.78S                  
CLARINDA *     CLOUDY    61  61 100 CALM      29.82R                  
COUNCIL BLFS * MOCLDY    66  61  82 SE10      29.74F                  
CRESTON *      CLOUDY    66  63  88 S8        29.81R                  
HARLAN  *      CLEAR     61  61 100 CALM      29.79S                  
LAMONI         CLOUDY    65  61  87 S8        29.80R                  
RED OAK *      CLOUDY    63  61  94 S3        29.78S                  
SHENANDOAH *   PTCLDY    64  61  88 CALM      29.78F                  
$$
 
IAZ047>049-059>061-072>074-084-141100-
   CENTRAL IOWA
  
CITY           SKY/WX    TMP DP  RH WIND       PRES   REMARKS
AMES           CLEAR     58  58 100 CALM      29.77R FOG              
ANKENY *       CLEAR     57  55  94 CALM      29.78R                  
BOONE *          N/A     61  57  88 S5        29.77R                  
CHARITON *     CLEAR     63  59  88 S7        29.79R                  
DES MOINES     PTCLDY    65  60  84 S7        29.77R                  
GRINNELL*      CLEAR     60  56  88 CALM      29.80R                  
KNOXVILLE *    CLEAR     63  59  88 S8        29.77R                  
MARSHALLTOWN   CLEAR     59  56  89 S3        29.77R                  
NEWTON *       CLEAR     59  57  94 SE5       29.78S                  
PELLA *        CLEAR     62  59  91 CALM      29.80R                  
PERRY *          N/A     59  58  97 SE3       29.77R                  
$$
 
IAZ004>006-015-016-023>025-035-036-141100-
   NORTH CENTRAL IOWA
  
CITY           SKY/WX    TMP DP  RH WIND       PRES   REMARKS
ALGONA *       CLEAR     63  63 100 S7        29.75R                  
CLARION *      CLEAR     63  61  94 S7        29.76R                  
ESTHERVILLE    CLEAR     58  58 100 S6        29.73R                  
FORT DODGE *   CLEAR     64  59  83 S3        29.76R HAZE             
MASON CITY     CLEAR     56  55  97 CALM      29.78R FOG              
FOREST CITY *    N/A     55  55 100 CALM      29.76S                  
WEBSTER CITY * CLEAR     59  57  94 SE5       29.75R                  
IOWA FALLS *     N/A     61  58  92 S3        29.78R                  
$$

IAZ007>011-017>019-026>030-037>042-050>054-066-141100-
   NORTHEAST IOWA
  
CITY           SKY/WX    TMP DP  RH WIND       PRES   REMARKS
CEDAR RAPIDS   CLEAR     58  52  80 SE6       29.79S                  
CHARLES CITY * CLEAR     61  61 100 SE6       29.78S                  
CLINTON *      FOG       49  48  97 E6        29.82S VSB 1/4          
DECORAH *      MOCLDY    61  52  72 S5        29.78S                  
DUBUQUE        CLEAR     55  50  83 CALM      29.82S                  
MONTICELLO *   CLEAR     52  50  93 CALM      29.80S                  
OELWEIN *      CLEAR     57  54  88 SE7       29.80R                  
WATERLOO       CLEAR     57  54  89 E5        29.77R                  
$$
 
IAZ064-065-067-068-078-141100-
   EAST CENTRAL IOWA
  
CITY           SKY/WX    TMP DP  RH WIND       PRES   REMARKS
DAVENPORT      FOG       51  51 100 CALM      29.83S VSB 1/4          
IOWA CITY      CLEAR     59  53  80 CALM      29.82R                  
MUSCATINE *    PTCLDY    54  50  87 CALM      29.82R                  
QUAD CITIES    PTCLDY    52  51  97 E3        29.81S FOG              
$$
 
IAZ062-063-075>077-085>089-095>099-141100-
   SOUTHEAST IOWA
  
CITY           SKY/WX    TMP DP  RH WIND       PRES   REMARKS
BURLINGTON     CLEAR     57  57 100 S5        29.81S FOG              
FAIRFIELD *    CLEAR     61  50  67 S5        29.80S                  
FORT MADISON * CLEAR     59  59 100 S5        29.83R                  
KEOKUK *       CLEAR     61  59  94 CALM      29.82R                  
OSKALOOSA *      N/A     57  55  91 S3        29.80R                  
OTTUMWA        CLEAR     61  57  87 S7        29.79S                  
WASHINGTON *   CLEAR     55  54  94 S5        29.81S                  
$$

ABBREVIATIONS USED IN REMARKS
   TC - TEMPERATURES IN CELSIUS
  WCI - WIND CHILL INDEX
   HX - HEAT INDEX
  VSB - VISIBILITY  
$$

  

805 
ASUS43 KDMX 141001
RWRIA 

WEATHER ROUNDUP FOR IOWA
NATIONAL WEATHER SERVICE DES MOINES IA
500 AM CDT THU SEP 14 2017

NOTE: "FAIR" INDICATES FEW OR NO CLOUDS BELOW 12,000 FEET WITH NO
SIGNIFICANT WEATHER AND/OR OBSTRUCTIONS TO VISIBILITY.

* - THESE STATIONS ARE NOT NWS STATIONS...THUS NOT UNDER NWS
QUALITY CONTROL.  THEY ALSO DO NOT REPORT WEATHER SUCH 
AS PRECIPITATION OR FOG.  

IAZ001>003-012>014-020>022-031>034-043>046-141100-
   NORTHWEST IOWA
  
CITY           SKY/WX    TMP DP  RH WIND       PRES   REMARKS
CARROLL *      CLOUDY    70  61  73 SW13      29.75R                  
CHEROKEE *     CLOUDY    60  60  99 SE3       29.73R                  
DENISON *      CLEAR     68  61  77 S10G18    29.76S                  
LE MARS *      CLEAR     63  59  88 S6        29.70S                  
ORANGE CITY *  PTCLDY    66  63  88 S5        29.72R                  
SHELDON *      CLOUDY    61  59  94 VRB5      29.70F                  
SIOUX CITY     PTCLDY    61  60  97 SE9       29.70R                  
SPENCER        CLOUDY    59  57  93 CALM      29.73S                  
STORM LAKE *   CLOUDY    63  59  88 S8        29.75R                  
$$
 
IAZ055>058-069>071-079>083-090>094-141100-
   SOUTHWEST IOWA
  
CITY           SKY/WX    TMP DP  RH WIND       PRES   REMARKS
ATLANTIC *     PTCLDY    64  61  88 S5        29.78R                  
AUDUBON *      PTCLDY    68  61  77 S7        29.78S                  
CLARINDA *     CLOUDY    61  61 100 CALM      29.82R                  
COUNCIL BLFS * MOCLDY    66  61  82 SE10      29.74F                  
CRESTON *      CLOUDY    66  63  88 S8        29.81R                  
HARLAN  *      CLEAR     61  61 100 CALM      29.79S                  
LAMONI         CLOUDY    65  61  87 S8        29.80R                  
RED OAK *      CLOUDY    63  61  94 S3        29.78S                  
SHENANDOAH *   PTCLDY    64  61  88 CALM      29.78F                  
$$
 
IAZ047>049-059>061-072>074-084-141100-
   CENTRAL IOWA
  
CITY           SKY/WX    TMP DP  RH WIND       PRES   REMARKS
AMES           CLEAR     58  58 100 CALM      29.77R FOG              
ANKENY *       CLEAR     57  55  94 CALM      29.78R                  
BOONE *          N/A     61  57  88 S5        29.77R                  
CHARITON *     CLEAR     63  59  88 S7        29.79R                  
DES MOINES     PTCLDY    65  60  84 S7        29.77R                  
GRINNELL*      CLEAR     60  56  88 CALM      29.80R                  
KNOXVILLE *    CLEAR     63  59  88 S8        29.77R                  
MARSHALLTOWN   CLEAR     59  56  89 S3        29.77R                  
NEWTON *       CLEAR     59  57  94 SE5       29.78S                  
PELLA *        CLEAR     62  59  91 CALM      29.80R                  
PERRY *          N/A     59  58  97 SE3       29.77R                  
$$
 
IAZ004>006-015-016-023>025-035-036-141100-
   NORTH CENTRAL IOWA
  
CITY           SKY/WX    TMP DP  RH WIND       PRES   REMARKS
ALGONA *       CLEAR     63  63 100 S7        29.75R                  
CLARION *      CLEAR     63  61  94 S7        29.76R                  
ESTHERVILLE    CLEAR     58  58 100 S6        29.73R                  
FORT DODGE *   CLEAR     64  59  83 S3        29.76R HAZE             
MASON CITY     CLEAR     56  55  97 CALM      29.78R FOG              
FOREST CITY *    N/A     55  55 100 CALM      29.76S                  
WEBSTER CITY * CLEAR     59  57  94 SE5       29.75R                  
IOWA FALLS *     N/A     61  58  92 S3        29.78R                  
$$

IAZ007>011-017>019-026>030-037>042-050>054-066-141100-
   NORTHEAST IOWA
  
CITY           SKY/WX    TMP DP  RH WIND       PRES   REMARKS
CEDAR RAPIDS   CLEAR     58  52  80 SE6       29.79S                  
CHARLES CITY * CLEAR     61  61 100 SE6       29.78S                  
CLINTON *      FOG       49  48  97 E6        29.82S VSB 1/4          
DECORAH *      MOCLDY    61  52  72 S5        29.78S                  
DUBUQUE        CLEAR     55  50  83 CALM      29.82S                  
MONTICELLO *   CLEAR     52  50  93 CALM      29.80S                  
OELWEIN *      CLEAR     57  54  88 SE7       29.80R                  
WATERLOO       CLEAR     57  54  89 E5        29.77R                  
$$
 
IAZ064-065-067-068-078-141100-
   EAST CENTRAL IOWA
  
CITY           SKY/WX    TMP DP  RH WIND       PRES   REMARKS
DAVENPORT      FOG       51  51 100 CALM      29.83S VSB 1/4          
IOWA CITY      CLEAR     59  53  80 CALM      29.82R                  
MUSCATINE *    PTCLDY    54  50  87 CALM      29.82R                  
QUAD CITIES    MOCLDY    52  51  97 E3        29.81S FOG              
$$
 
IAZ062-063-075>077-085>089-095>099-141100-
   SOUTHEAST IOWA
  
CITY           SKY/WX    TMP DP  RH WIND       PRES   REMARKS
BURLINGTON     CLEAR     57  57 100 S5        29.81S FOG              
FAIRFIELD *    CLEAR     61  50  67 S5        29.80S                  
FORT MADISON * CLEAR     59  59 100 S5        29.83R                  
KEOKUK *       CLEAR     61  59  94 CALM      29.82R                  
OSKALOOSA *      N/A     57  55  91 S3        29.80R                  
OTTUMWA        CLEAR     61  57  87 S7        29.79S                  
WASHINGTON *   CLEAR     55  54  94 S5        29.81S                  
$$

ABBREVIATIONS USED IN REMARKS
   TC - TEMPERATURES IN CELSIUS
  WCI - WIND CHILL INDEX
   HX - HEAT INDEX
  VSB - VISIBILITY  
$$